| time (UTC) | temp F | wind direction | speed knots | gust knots | rain 1hr in | rain 24hr in | rain mn in | humidity % | barometer mb |
| 20260507135115 | 43 | 261 | 4.3 | 6.1 | 0.00 | 0.01 | 0.01 | 97 | 1021.7 |
| 20260507134611 | 43 | 284 | 10.4 | 13.0 | 0.00 | 0.01 | 0.01 | 97 | 1021.9 |
| 20260507134107 | 43 | 253 | 4.3 | 6.1 | 0.00 | 0.01 | 0.01 | 97 | 1021.9 |
| 20260507133603 | 42 | 281 | 9.6 | 10.4 | 0.00 | 0.01 | 0.01 | 97 | 1022.1 |
| 20260507133101 | 42 | 281 | 3.5 | 4.3 | 0.00 | 0.01 | 0.01 | 98 | 1021.8 |
| 20260507132558 | 42 | 251 | 11.3 | 12.2 | 0.00 | 0.01 | 0.01 | 98 | 1021.8 |
| 20260507132054 | 42 | 275 | 7.0 | 10.4 | 0.00 | 0.01 | 0.01 | 98 | 1021.8 |
| 20260507131551 | 42 | 272 | 6.1 | 7.8 | 0.00 | 0.01 | 0.01 | 98 | 1021.8 |
| 20260507131049 | 41 | 272 | 6.1 | 7.8 | 0.00 | 0.01 | 0.01 | 98 | 1021.8 |
| 20260507130545 | 41 | 278 | 11.3 | 13.0 | 0.00 | 0.01 | 0.01 | 98 | 1022.0 |
| 20260507130043 | 41 | 271 | 8.7 | 10.4 | 0.00 | 0.01 | 0.01 | 98 | 1022.2 |
| 20260507125542 | 41 | 268 | 7.0 | 7.8 | 0.00 | 0.01 | 0.01 | 98 | 1022.0 |
| 20260507125039 | 41 | 275 | 8.7 | 10.4 | 0.00 | 0.01 | 0.01 | 98 | 1022.1 |
| 20260507124535 | 41 | 283 | 8.7 | 12.2 | 0.00 | 0.01 | 0.01 | 98 | 1021.8 |
| 20260507124033 | 41 | 266 | 8.7 | 10.4 | 0.00 | 0.01 | 0.01 | 98 | 1021.9 |
| 20260507123531 | 41 | 278 | 4.3 | 6.1 | 0.00 | 0.01 | 0.01 | 98 | 1021.7 |
| 20260507123027 | 41 | 276 | 4.3 | 6.1 | 0.00 | 0.01 | 0.01 | 98 | 1021.8 |
| 20260507122522 | 41 | 275 | 7.0 | 8.7 | 0.00 | 0.01 | 0.01 | 98 | 1021.8 |
| 20260507122019 | 41 | 281 | 5.2 | 6.1 | 0.00 | 0.01 | 0.01 | 98 | 1021.9 |
| 20260507121514 | 41 | 287 | 5.2 | 8.7 | 0.00 | 0.01 | 0.01 | 98 | 1021.6 |
| 20260507121010 | 41 | 283 | 2.6 | 2.6 | 0.00 | 0.01 | 0.01 | 98 | 1021.6 |
| 20260507120507 | 41 | 286 | 5.2 | 7.8 | 0.00 | 0.01 | 0.01 | 98 | 1021.8 |
| 20260507120005 | 41 | 283 | 5.2 | 7.8 | 0.00 | 0.01 | 0.01 | 98 | 1021.7 |
| 20260507115500 | 41 | 280 | 4.3 | 7.8 | 0.00 | 0.01 | 0.01 | 98 | 1021.5 |
| 20260507114955 | 41 | 276 | 4.3 | 7.8 | 0.00 | 0.01 | 0.01 | 98 | 1021.9 |
| 20260507114452 | 41 | 277 | 3.5 | 4.3 | 0.00 | 0.01 | 0.01 | 98 | 1021.7 |
| 20260507113949 | 41 | 277 | 4.3 | 6.1 | 0.00 | 0.01 | 0.01 | 98 | 1021.8 |
| 20260507113446 | 41 | 277 | 6.1 | 8.7 | 0.00 | 0.01 | 0.01 | 98 | 1021.8 |
| 20260507112944 | 41 | 274 | 7.8 | 12.2 | 0.00 | 0.01 | 0.01 | 98 | 1021.7 |
| 20260507112441 | 41 | 268 | 7.8 | 12.2 | 0.00 | 0.01 | 0.01 | 98 | 1021.6 |
| 20260507111938 | 41 | 264 | 6.1 | 7.8 | 0.00 | 0.01 | 0.01 | 98 | 1021.8 |
| 20260507111435 | 41 | 266 | 6.1 | 7.8 | 0.00 | 0.01 | 0.01 | 98 | 1021.9 |
| 20260507110931 | 41 | 308 | 6.1 | 8.7 | 0.00 | 0.01 | 0.01 | 98 | 1021.8 |
| 20260507110427 | 41 | 313 | 1.7 | 1.7 | 0.00 | 0.01 | 0.01 | 98 | 1021.7 |
| 20260507105924 | 41 | 314 | 7.8 | 10.4 | 0.00 | 0.01 | 0.01 | 98 | 1021.8 |
| 20260507105421 | 41 | 313 | 6.1 | 7.8 | 0.00 | 0.01 | 0.01 | 98 | 1021.7 |
| 20260507104918 | 41 | 310 | 4.3 | 6.1 | 0.00 | 0.01 | 0.01 | 98 | 1021.7 |
| 20260507104415 | 41 | 311 | 2.6 | 4.3 | 0.00 | 0.01 | 0.01 | 98 | 1021.7 |
| 20260507103910 | 41 | 315 | 6.1 | 7.8 | 0.00 | 0.01 | 0.01 | 98 | 1022.0 |
| 20260507103407 | 41 | 315 | 3.5 | 4.3 | 0.00 | 0.01 | 0.01 | 98 | 1021.9 |
| 20260507102903 | 41 | 314 | 10.4 | 14.8 | 0.00 | 0.01 | 0.01 | 98 | 1021.7 |
| 20260507102400 | 41 | 312 | 6.1 | 7.8 | 0.00 | 0.01 | 0.01 | 98 | 1021.9 |
| 20260507101857 | 41 | 313 | 4.3 | 6.1 | 0.00 | 0.01 | 0.01 | 98 | 1021.9 |
| 20260507101356 | 41 | 304 | 7.0 | 7.8 | 0.00 | 0.01 | 0.01 | 98 | 1021.7 |
| 20260507100854 | 41 | 317 | 5.2 | 6.1 | 0.00 | 0.01 | 0.01 | 98 | 1021.9 |
| 20260507100352 | 41 | 319 | 4.3 | 4.3 | 0.00 | 0.01 | 0.01 | 98 | 1021.8 |
| 20260507095849 | 41 | 311 | 8.7 | 8.7 | 0.00 | 0.01 | 0.01 | 98 | 1021.7 |
| 20260507095346 | 41 | 334 | 3.5 | 4.3 | 0.00 | 0.01 | 0.01 | 98 | 1021.7 |
| 20260507094843 | 40 | 341 | 2.6 | 2.6 | 0.00 | 0.01 | 0.01 | 98 | 1021.8 |
| 20260507094339 | 40 | 343 | 4.3 | 4.3 | 0.00 | 0.01 | 0.01 | 98 | 1021.8 |
| 20260507093837 | 39 | 347 | 3.5 | 4.3 | 0.00 | 0.01 | 0.01 | 98 | 1021.8 |
| 20260507093335 | 39 | 348 | 4.3 | 4.3 | 0.00 | 0.01 | 0.01 | 97 | 1021.9 |
| 20260507092833 | 39 | 349 | 2.6 | 2.6 | 0.00 | 0.01 | 0.01 | 97 | 1021.6 |
| 20260507092329 | 40 | 349 | 1.7 | 2.6 | 0.00 | 0.01 | 0.01 | 97 | 1021.7 |
| 20260507091825 | 40 | 349 | 3.5 | 4.3 | 0.00 | 0.01 | 0.01 | 97 | 1022.0 |
| 20260507091322 | 40 | 351 | 3.5 | 4.3 | 0.00 | 0.01 | 0.01 | 97 | 1021.8 |
| 20260507090817 | 40 | 351 | 1.7 | 1.7 | 0.00 | 0.01 | 0.01 | 97 | 1021.8 |
| 20260507090314 | 40 | 352 | 3.5 | 4.3 | 0.00 | 0.01 | 0.01 | 97 | 1021.9 |
| 20260507085811 | 41 | 352 | 2.6 | 2.6 | 0.00 | 0.01 | 0.01 | 97 | 1022.0 |
| 20260507085308 | 41 | 353 | 2.6 | 2.6 | 0.00 | 0.01 | 0.01 | 97 | 1021.7 |
| 20260507084805 | 41 | 354 | 1.7 | 2.6 | 0.00 | 0.01 | 0.01 | 96 | 1021.6 |
| 20260507084301 | 41 | 354 | 3.5 | 4.3 | 0.00 | 0.01 | 0.01 | 96 | 1021.5 |
| 20260507083759 | 41 | 354 | 4.3 | 6.1 | 0.00 | 0.01 | 0.01 | 96 | 1021.7 |
| 20260507083255 | 42 | 357 | 7.0 | 7.8 | 0.00 | 0.01 | 0.01 | 96 | 1021.7 |
| 20260507082751 | 42 | 358 | 5.2 | 6.1 | 0.00 | 0.01 | 0.01 | 96 | 1021.8 |
| 20260507082247 | 42 | 357 | 4.3 | 6.1 | 0.00 | 0.01 | 0.01 | 96 | 1021.7 |
| 20260507081744 | 42 | 358 | 6.1 | 7.8 | 0.00 | 0.01 | 0.01 | 96 | 1022.0 |
| 20260507081240 | 42 | 358 | 1.7 | 1.7 | 0.00 | 0.01 | 0.01 | 96 | 1021.7 |
| 20260507080737 | 42 | 359 | 0.0 | 0.0 | 0.00 | 0.01 | 0.01 | 96 | 1021.8 |
| 20260507080233 | 42 | 359 | 0.0 | 0.0 | 0.00 | 0.01 | 0.01 | 96 | 1022.0 |
| 20260507075729 | 42 | 359 | 0.0 | 0.0 | 0.00 | 0.01 | 0.01 | 96 | 1021.9 |
| 20260507075225 | 42 | 359 | 1.7 | 2.6 | 0.00 | 0.01 | 0.01 | 96 | 1021.7 |
| 20260507074722 | 41 | 359 | 1.7 | 1.7 | 0.00 | 0.01 | 0.01 | 95 | 1021.9 |
| 20260507074220 | 41 | 359 | 0.0 | 0.0 | 0.00 | 0.01 | 0.01 | 95 | 1022.1 |
| 20260507073716 | 42 | 359 | 0.0 | 0.0 | 0.00 | 0.01 | 0.01 | 95 | 1022.1 |
| 20260507073213 | 42 | 359 | 0.0 | 0.0 | 0.00 | 0.01 | 0.01 | 95 | 1022.2 |
| 20260507072711 | 42 | 359 | 1.7 | 1.7 | 0.00 | 0.01 | 0.01 | 95 | 1022.3 |
| 20260507072208 | 42 | 1 | 5.2 | 6.1 | 0.00 | 0.01 | 0.01 | 95 | 1022.3 |
| 20260507071705 | 42 | 358 | 3.5 | 4.3 | 0.00 | 0.01 | 0.01 | 95 | 1022.6 |
| 20260507071201 | 42 | 357 | 7.8 | 10.4 | 0.00 | 0.01 | 0.01 | 95 | 1022.5 |
| 20260507070659 | 42 | 352 | 7.0 | 8.7 | 0.00 | 0.01 | 0.01 | 94 | 1022.8 |
| 20260507070155 | 42 | 351 | 7.8 | 8.7 | 0.00 | 0.01 | 0.01 | 94 | 1022.9 |
| 20260507065652 | 42 | 347 | 8.7 | 12.2 | 0.00 | 0.01 | 0.01 | 94 | 1023.6 |
| 20260507065149 | 42 | 353 | 7.8 | 10.4 | 0.00 | 0.01 | 0.01 | 93 | 1023.1 |
| 20260507064646 | 42 | 348 | 10.4 | 12.2 | 0.00 | 0.01 | 0.01 | 93 | 1022.8 |
| 20260507064144 | 42 | 346 | 13.9 | 16.5 | 0.00 | 0.01 | 0.01 | 93 | 1022.9 |
| 20260507063641 | 42 | 8 | 9.6 | 12.2 | 0.00 | 0.01 | 0.01 | 92 | 1022.8 |
| 20260507063133 | 42 | 15 | 8.7 | 10.4 | 0.00 | 0.01 | 0.01 | 91 | 1023.1 |
| 20260507062630 | 42 | 359 | 7.8 | 8.7 | 0.00 | 0.01 | 0.01 | 91 | 1022.6 |
| 20260507062127 | 42 | 2 | 6.1 | 7.8 | 0.00 | 0.01 | 0.01 | 91 | 1022.5 |
| 20260507061625 | 43 | 14 | 5.2 | 6.1 | 0.00 | 0.01 | 0.01 | 90 | 1022.5 |
| 20260507061123 | 43 | 15 | 7.8 | 8.7 | 0.00 | 0.01 | 0.01 | 89 | 1022.3 |
| 20260507060621 | 43 | 25 | 7.0 | 8.7 | 0.00 | 0.01 | 0.01 | 88 | 1022.2 |
| 20260507060117 | 43 | 4 | 3.5 | 4.3 | 0.00 | 0.01 | 0.01 | 88 | 1022.1 |
| 20260507055612 | 43 | 15 | 1.7 | 2.6 | 0.00 | 0.01 | 0.01 | 86 | 1022.0 |
| 20260507055109 | 43 | 14 | 6.1 | 8.7 | 0.00 | 0.01 | 0.01 | 86 | 1022.3 |
| 20260507054604 | 43 | 12 | 6.1 | 7.8 | 0.00 | 0.01 | 0.01 | 85 | 1022.1 |
| 20260507054102 | 43 | 0 | 5.2 | 7.8 | 0.00 | 0.01 | 0.01 | 86 | 1022.1 |
| 20260507053600 | 43 | 10 | 7.0 | 8.7 | 0.00 | 0.01 | 0.01 | 85 | 1022.2 |
| 20260507053058 | 44 | 31 | 7.0 | 8.7 | 0.05 | 0.01 | 0.01 | 85 | 1021.9 |
| 20260507052556 | 44 | 30 | 5.2 | 6.1 | 0.05 | 0.01 | 0.01 | 83 | 1022.2 |
| 20260507052052 | 44 | 12 | 7.8 | 8.7 | 0.00 | 0.00 | 0.00 | 79 | 1022.1 |
| 20260507051549 | 45 | 15 | 11.3 | 13.0 | 0.00 | 0.00 | 0.00 | 74 | 1022.3 |
| 20260507051046 | 46 | 24 | 9.6 | 13.0 | 0.00 | 0.00 | 0.00 | 69 | 1022.6 |
| 20260507050543 | 46 | 19 | 8.7 | 10.4 | 0.00 | 0.00 | 0.00 | 66 | 1022.7 |
| 20260507050039 | 46 | 18 | 9.6 | 12.2 | 0.00 | 0.00 | 0.00 | 66 | 1022.3 |
| 20260507045536 | 46 | 19 | 5.2 | 6.1 | 0.00 | 0.00 | 0.00 | 66 | 1022.3 |
| 20260507045033 | 46 | 7 | 1.7 | 2.6 | 0.00 | 0.00 | 0.00 | 66 | 1022.1 |
| 20260507044530 | 46 | 355 | 2.6 | 4.3 | 0.00 | 0.00 | 0.00 | 66 | 1022.0 |
| 20260507044027 | 46 | 6 | 4.3 | 6.1 | 0.00 | 0.00 | 0.00 | 66 | 1021.8 |
| 20260507043523 | 47 | 11 | 6.1 | 12.2 | 0.00 | 0.00 | 0.00 | 65 | 1022.0 |
| 20260507043020 | 47 | 347 | 3.5 | 4.3 | 0.00 | 0.00 | 0.00 | 64 | 1022.0 |
| 20260507042516 | 47 | 12 | 3.5 | 4.3 | 0.00 | 0.00 | 0.00 | 63 | 1022.2 |
| 20260507042012 | 48 | 4 | 9.6 | 12.2 | 0.00 | 0.00 | 0.00 | 63 | 1022.3 |
| 20260507041509 | 48 | 19 | 11.3 | 16.5 | 0.00 | 0.00 | 0.00 | 63 | 1022.1 |
| 20260507041006 | 48 | 351 | 3.5 | 6.1 | 0.00 | 0.00 | 0.00 | 62 | 1022.0 |
| 20260507040502 | 48 | 17 | 7.0 | 13.0 | 0.00 | 0.00 | 0.00 | 62 | 1022.0 |
| 20260507035957 | 48 | 20 | 7.8 | 8.7 | 0.00 | 0.00 | 0.00 | 61 | 1022.1 |
| 20260507035454 | 48 | 33 | 7.0 | 10.4 | 0.00 | 0.00 | 0.00 | 61 | 1022.0 |
| 20260507034951 | 48 | 42 | 7.0 | 8.7 | 0.00 | 0.00 | 0.00 | 61 | 1021.9 |
| 20260507034448 | 48 | 55 | 5.2 | 7.8 | 0.00 | 0.00 | 0.00 | 61 | 1021.8 |
| 20260507033946 | 48 | 2 | 7.8 | 10.4 | 0.00 | 0.00 | 0.00 | 61 | 1021.8 |
| 20260507033443 | 48 | 17 | 13.0 | 16.5 | 0.00 | 0.00 | 0.00 | 61 | 1021.8 |
| 20260507032940 | 49 | 44 | 11.3 | 18.2 | 0.00 | 0.00 | 0.00 | 60 | 1021.7 |
| 20260507032437 | 49 | 7 | 8.7 | 13.0 | 0.00 | 0.00 | 0.00 | 60 | 1021.6 |
| 20260507031933 | 49 | 21 | 7.8 | 12.2 | 0.00 | 0.00 | 0.00 | 60 | 1021.5 |
| 20260507031430 | 49 | 55 | 6.1 | 8.7 | 0.00 | 0.00 | 0.00 | 60 | 1021.5 |
| 20260507030927 | 49 | 40 | 9.6 | 12.2 | 0.00 | 0.00 | 0.00 | 59 | 1021.3 |
| 20260507030424 | 50 | 33 | 14.8 | 19.1 | 0.00 | 0.00 | 0.00 | 59 | 1021.1 |
| 20260507025921 | 50 | 35 | 13.9 | 18.2 | 0.00 | 0.00 | 0.00 | 60 | 1021.2 |
| 20260507025418 | 50 | 8 | 8.7 | 13.0 | 0.00 | 0.00 | 0.00 | 60 | 1021.0 |
| 20260507024916 | 50 | 37 | 9.6 | 14.8 | 0.00 | 0.00 | 0.00 | 59 | 1020.9 |
| 20260507024413 | 50 | 33 | 13.0 | 18.2 | 0.00 | 0.00 | 0.00 | 59 | 1020.9 |
| 20260507023908 | 50 | 22 | 11.3 | 14.8 | 0.00 | 0.00 | 0.00 | 59 | 1020.7 |
| 20260507023406 | 51 | 14 | 8.7 | 10.4 | 0.00 | 0.00 | 0.00 | 58 | 1020.8 |
| 20260507022903 | 51 | 356 | 13.0 | 18.2 | 0.00 | 0.00 | 0.00 | 58 | 1020.8 |
| 20260507022400 | 51 | 21 | 14.8 | 19.1 | 0.00 | 0.00 | 0.00 | 58 | 1020.3 |
| 20260507021856 | 51 | 18 | 6.1 | 10.4 | 0.00 | 0.00 | 0.00 | 58 | 1020.0 |
| 20260507021351 | 51 | 94 | 3.5 | 6.1 | 0.00 | 0.00 | 0.00 | 58 | 1019.8 |
| 20260507020849 | 51 | 13 | 8.7 | 14.8 | 0.00 | 0.00 | 0.00 | 57 | 1019.8 |
| 20260507020346 | 52 | 7 | 8.7 | 10.4 | 0.00 | 0.00 | 0.00 | 57 | 1019.3 |
| 20260507015842 | 52 | 350 | 7.0 | 10.4 | 0.00 | 0.00 | 0.00 | 57 | 1019.2 |
| 20260507015341 | 52 | 9 | 8.7 | 13.0 | 0.00 | 0.00 | 0.00 | 57 | 1019.0 |
| 20260507014837 | 52 | 83 | 6.1 | 10.4 | 0.00 | 0.00 | 0.00 | 56 | 1019.0 |
| 20260507014334 | 52 | 9 | 7.8 | 13.0 | 0.00 | 0.00 | 0.00 | 56 | 1018.8 |
| 20260507013830 | 53 | 45 | 7.8 | 10.4 | 0.00 | 0.00 | 0.00 | 56 | 1018.7 |
| 20260507013327 | 53 | 27 | 9.6 | 13.0 | 0.00 | 0.00 | 0.00 | 55 | 1018.5 |
| 20260507012825 | 53 | 3 | 10.4 | 14.8 | 0.00 | 0.00 | 0.00 | 54 | 1018.1 |
| 20260507012320 | 54 | 33 | 4.3 | 6.1 | 0.00 | 0.00 | 0.00 | 54 | 1018.1 |
| 20260507011818 | 54 | 81 | 5.2 | 10.4 | 0.00 | 0.00 | 0.00 | 54 | 1018.1 |
| 20260507011314 | 54 | 10 | 1.7 | 2.6 | 0.00 | 0.00 | 0.00 | 54 | 1018.0 |
| 20260507010814 | 54 | 25 | 3.5 | 4.3 | 0.00 | 0.00 | 0.00 | 54 | 1017.6 |
| 20260507010310 | 54 | 80 | 4.3 | 6.1 | 0.00 | 0.00 | 0.00 | 54 | 1017.4 |
| 20260507005807 | 55 | 0 | 5.2 | 7.8 | 0.00 | 0.00 | 0.00 | 53 | 1017.4 |
| 20260507005305 | 56 | 37 | 7.0 | 12.2 | 0.00 | 0.00 | 0.00 | 52 | 1017.5 |
| 20260507004800 | 56 | 74 | 6.1 | 8.7 | 0.00 | 0.00 | 0.00 | 52 | 1017.4 |
| 20260507004258 | 56 | 49 | 1.7 | 2.6 | 0.00 | 0.00 | 0.00 | 51 | 1017.2 |
| 20260507003754 | 55 | 101 | 2.6 | 4.3 | 0.00 | 0.00 | 0.00 | 52 | 1017.0 |
| 20260507003249 | 55 | 34 | 5.2 | 8.7 | 0.00 | 0.00 | 0.00 | 53 | 1017.2 |
| 20260507002746 | 55 | 65 | 5.2 | 8.7 | 0.00 | 0.00 | 0.00 | 52 | 1017.2 |
| 20260507002242 | 57 | 41 | 0.9 | 1.7 | 0.00 | 0.00 | 0.00 | 51 | 1017.1 |
| 20260507001739 | 57 | 7 | 4.3 | 6.1 | 0.00 | 0.00 | 0.00 | 50 | 1017.2 |
| 20260507001236 | 57 | 82 | 2.6 | 4.3 | 0.00 | 0.00 | 0.00 | 50 | 1017.1 |
| 20260507000732 | 56 | 60 | 1.7 | 2.6 | 0.00 | 0.00 | 0.00 | 51 | 1016.9 |
| 20260507000228 | 55 | 70 | 0.9 | 1.7 | 0.00 | 0.00 | 0.00 | 54 | 1017.0 |
| 20260506235725 | 55 | 102 | 3.5 | 4.3 | 0.00 | 0.00 | 0.00 | 53 | 1016.9 |
| 20260506235221 | 56 | 61 | 2.6 | 6.1 | 0.00 | 0.00 | 0.00 | 53 | 1016.9 |
| 20260506234718 | 57 | 2 | 1.7 | 2.6 | 0.00 | 0.00 | 0.00 | 51 | 1016.7 |
| 20260506234215 | 57 | 103 | 5.2 | 7.8 | 0.00 | 0.00 | 0.00 | 50 | 1016.7 |
| 20260506233713 | 57 | 99 | 7.0 | 8.7 | 0.00 | 0.00 | 0.00 | 52 | 1016.5 |
| 20260506233209 | 56 | 7 | 1.7 | 1.7 | 0.00 | 0.00 | 0.00 | 53 | 1016.9 |
| 20260506232706 | 55 | 53 | 1.7 | 2.6 | 0.00 | 0.00 | 0.00 | 54 | 1016.7 |
| 20260506232200 | 56 | 106 | 10.4 | 13.0 | 0.00 | 0.00 | 0.00 | 52 | 1016.9 |
| 20260506231658 | 58 | 76 | 10.4 | 16.5 | 0.00 | 0.00 | 0.00 | 49 | 1016.7 |
| 20260506231156 | 59 | 94 | 6.1 | 8.7 | 0.00 | 0.00 | 0.00 | 49 | 1016.7 |
| 20260506230652 | 58 | 94 | 5.2 | 10.4 | 0.00 | 0.00 | 0.00 | 50 | 1016.9 |
| 20260506230150 | 58 | 138 | 4.3 | 7.8 | 0.00 | 0.00 | 0.00 | 50 | 1016.7 |
| 20260506225646 | 58 | 30 | 3.5 | 4.3 | 0.00 | 0.00 | 0.00 | 50 | 1016.9 |
| 20260506225143 | 57 | 100 | 3.5 | 4.3 | 0.00 | 0.00 | 0.00 | 50 | 1017.1 |
| 20260506224639 | 58 | 72 | 3.5 | 6.1 | 0.00 | 0.00 | 0.00 | 50 | 1016.8 |
| 20260506224136 | 57 | 12 | 2.6 | 2.6 | 0.00 | 0.00 | 0.00 | 52 | 1016.6 |
| 20260506223632 | 55 | 2 | 1.7 | 2.6 | 0.00 | 0.00 | 0.00 | 54 | 1017.0 |
| 20260506223128 | 55 | 78 | 3.5 | 4.3 | 0.00 | 0.00 | 0.00 | 55 | 1016.9 |
| 20260506222626 | 55 | 174 | 4.3 | 6.1 | 0.00 | 0.00 | 0.00 | 54 | 1017.1 |
| 20260506222122 | 57 | 41 | 6.1 | 7.8 | 0.00 | 0.00 | 0.00 | 52 | 1017.0 |
| 20260506221620 | 58 | 331 | 0.9 | 2.6 | 0.00 | 0.00 | 0.00 | 50 | 1017.1 |
| 20260506221118 | 58 | 4 | 5.2 | 7.8 | 0.00 | 0.00 | 0.00 | 51 | 1017.2 |
| 20260506220614 | 56 | 25 | 0.9 | 1.7 | 0.00 | 0.00 | 0.00 | 53 | 1017.2 |
| 20260506220109 | 54 | 104 | 5.2 | 6.1 | 0.00 | 0.00 | 0.00 | 56 | 1017.5 |
| 20260506215606 | 54 | 92 | 9.6 | 12.2 | 0.00 | 0.00 | 0.00 | 56 | 1017.4 |
| 20260506215101 | 54 | 106 | 7.8 | 12.2 | 0.00 | 0.00 | 0.00 | 55 | 1017.1 |
| 20260506214559 | 55 | 82 | 10.4 | 12.2 | 0.00 | 0.00 | 0.00 | 55 | 1017.2 |
| 20260506214056 | 56 | 49 | 5.2 | 7.8 | 0.00 | 0.00 | 0.00 | 54 | 1017.4 |
| 20260506213554 | 58 | 9 | 2.6 | 2.6 | 0.00 | 0.00 | 0.00 | 51 | 1017.5 |
| 20260506213051 | 57 | 69 | 2.6 | 6.1 | 0.00 | 0.00 | 0.00 | 53 | 1017.5 |
| 20260506212547 | 56 | 344 | 0.9 | 1.7 | 0.00 | 0.00 | 0.00 | 54 | 1017.0 |
| 20260506212042 | 54 | 16 | 0.0 | 0.0 | 0.00 | 0.00 | 0.00 | 57 | 1017.4 |
| 20260506211539 | 54 | 108 | 4.3 | 6.1 | 0.00 | 0.00 | 0.00 | 56 | 1017.6 |
| 20260506211036 | 54 | 157 | 7.8 | 10.4 | 0.00 | 0.00 | 0.00 | 57 | 1017.4 |
| 20260506210532 | 56 | 136 | 3.5 | 4.3 | 0.00 | 0.00 | 0.00 | 54 | 1017.5 |
| 20260506210029 | 56 | 27 | 4.3 | 6.1 | 0.00 | 0.00 | 0.00 | 54 | 1017.5 |
| 20260506205526 | 55 | 322 | 1.7 | 2.6 | 0.00 | 0.00 | 0.00 | 56 | 1017.4 |
| 20260506205021 | 54 | 354 | 8.7 | 8.7 | 0.00 | 0.00 | 0.00 | 56 | 1017.6 |
| 20260506204519 | 53 | 102 | 3.5 | 6.1 | 0.00 | 0.00 | 0.00 | 59 | 1017.9 |
| 20260506204016 | 54 | 90 | 7.8 | 10.4 | 0.00 | 0.00 | 0.00 | 59 | 1017.7 |
| 20260506203514 | 54 | 129 | 6.1 | 10.4 | 0.00 | 0.00 | 0.00 | 58 | 1017.8 |
| 20260506203010 | 55 | 119 | 7.8 | 8.7 | 0.00 | 0.00 | 0.00 | 55 | 1017.6 |
| 20260506202508 | 53 | 58 | 1.7 | 2.6 | 0.00 | 0.00 | 0.00 | 58 | 1017.7 |
| 20260506202004 | 53 | 93 | 4.3 | 6.1 | 0.00 | 0.00 | 0.00 | 59 | 1017.9 |
| 20260506201502 | 52 | 171 | 7.0 | 8.7 | 0.00 | 0.00 | 0.00 | 62 | 1017.9 |
| 20260506200958 | 51 | 80 | 9.6 | 12.2 | 0.00 | 0.00 | 0.00 | 63 | 1017.9 |
| 20260506200455 | 55 | 146 | 6.1 | 7.8 | 0.00 | 0.00 | 0.00 | 59 | 1018.2 |
| 20260506195951 | 54 | 11 | 7.0 | 8.7 | 0.00 | 0.00 | 0.00 | 59 | 1018.0 |
| 20260506195448 | 53 | 104 | 4.3 | 4.3 | 0.00 | 0.00 | 0.00 | 60 | 1018.1 |
| 20260506194945 | 50 | 336 | 1.7 | 2.6 | 0.00 | 0.00 | 0.00 | 65 | 1018.2 |
| 20260506194442 | 50 | 42 | 7.8 | 10.4 | 0.00 | 0.00 | 0.00 | 66 | 1018.0 |
| 20260506193939 | 52 | 30 | 1.7 | 2.6 | 0.00 | 0.00 | 0.00 | 63 | 1017.9 |
| 20260506193436 | 50 | 118 | 5.2 | 7.8 | 0.00 | 0.00 | 0.00 | 65 | 1018.4 |
| 20260506192932 | 50 | 81 | 5.2 | 7.8 | 0.00 | 0.00 | 0.00 | 66 | 1018.1 |
| 20260506192429 | 49 | 104 | 6.1 | 8.7 | 0.00 | 0.00 | 0.00 | 67 | 1018.1 |
| 20260506191926 | 50 | 65 | 4.3 | 10.4 | 0.00 | 0.00 | 0.00 | 67 | 1018.1 |
| 20260506191422 | 51 | 19 | 1.7 | 2.6 | 0.00 | 0.00 | 0.00 | 64 | 1017.9 |
| 20260506190919 | 50 | 88 | 7.0 | 10.4 | 0.00 | 0.00 | 0.00 | 66 | 1018.2 |
| 20260506190416 | 50 | 124 | 3.5 | 4.3 | 0.00 | 0.00 | 0.00 | 67 | 1018.1 |
| 20260506185913 | 49 | 23 | 2.6 | 4.3 | 0.00 | 0.00 | 0.00 | 68 | 1018.0 |
| 20260506185410 | 49 | 130 | 7.0 | 8.7 | 0.00 | 0.00 | 0.00 | 68 | 1018.4 |
| 20260506184907 | 50 | 64 | 3.5 | 4.3 | 0.00 | 0.00 | 0.00 | 68 | 1018.4 |
| 20260506184404 | 48 | 53 | 3.5 | 4.3 | 0.00 | 0.00 | 0.00 | 69 | 1018.6 |
| 20260506183901 | 48 | 11 | 4.3 | 6.1 | 0.00 | 0.00 | 0.00 | 70 | 1018.4 |
| 20260506183356 | 48 | 33 | 7.8 | 12.2 | 0.00 | 0.00 | 0.00 | 70 | 1018.6 |
| 20260506182854 | 48 | 51 | 6.1 | 7.8 | 0.00 | 0.00 | 0.00 | 70 | 1018.6 |
| 20260506182351 | 48 | 101 | 6.1 | 10.4 | 0.00 | 0.00 | 0.00 | 71 | 1018.8 |
| 20260506181848 | 47 | 102 | 6.1 | 7.8 | 0.00 | 0.00 | 0.00 | 71 | 1018.7 |
| 20260506181346 | 48 | 74 | 2.6 | 6.1 | 0.00 | 0.00 | 0.00 | 71 | 1018.8 |
| 20260506180843 | 48 | 139 | 5.2 | 6.1 | 0.00 | 0.00 | 0.00 | 70 | 1018.8 |
| 20260506180339 | 48 | 20 | 3.5 | 4.3 | 0.00 | 0.00 | 0.00 | 70 | 1018.7 |
| 20260506175835 | 48 | 117 | 4.3 | 6.1 | 0.00 | 0.00 | 0.00 | 70 | 1018.5 |
| 20260506175332 | 48 | 149 | 8.7 | 12.2 | 0.00 | 0.00 | 0.00 | 71 | 1018.4 |
| 20260506174830 | 48 | 3 | 2.6 | 4.3 | 0.00 | 0.00 | 0.00 | 71 | 1018.8 |
| 20260506174327 | 48 | 56 | 1.7 | 4.3 | 0.00 | 0.00 | 0.00 | 70 | 1018.5 |
| 20260506173824 | 48 | 80 | 5.2 | 8.7 | 0.00 | 0.00 | 0.00 | 69 | 1018.7 |
| 20260506173321 | 48 | 63 | 4.3 | 7.8 | 0.00 | 0.00 | 0.00 | 69 | 1018.8 |
| 20260506172818 | 48 | 67 | 4.3 | 6.1 | 0.00 | 0.00 | 0.00 | 70 | 1018.5 |
| 20260506172315 | 47 | 23 | 3.5 | 4.3 | 0.00 | 0.00 | 0.00 | 72 | 1018.7 |
| 20260506171812 | 48 | 72 | 2.6 | 4.3 | 0.00 | 0.00 | 0.00 | 71 | 1018.5 |
| 20260506171309 | 48 | 92 | 5.2 | 7.8 | 0.00 | 0.00 | 0.00 | 72 | 1018.6 |
| 20260506170807 | 47 | 54 | 2.6 | 4.3 | 0.00 | 0.00 | 0.00 | 71 | 1018.5 |
| 20260506170303 | 47 | 129 | 9.6 | 12.2 | 0.00 | 0.00 | 0.00 | 72 | 1018.5 |
| 20260506165802 | 48 | 71 | 7.8 | 10.4 | 0.00 | 0.00 | 0.00 | 70 | 1018.6 |
| 20260506165259 | 47 | 60 | 5.2 | 7.8 | 0.00 | 0.00 | 0.00 | 71 | 1018.4 |
| 20260506164755 | 47 | 40 | 6.1 | 7.8 | 0.00 | 0.00 | 0.00 | 71 | 1018.5 |
| 20260506164252 | 47 | 94 | 5.2 | 6.1 | 0.00 | 0.00 | 0.00 | 70 | 1018.5 |
| 20260506163749 | 47 | 80 | 5.2 | 10.4 | 0.00 | 0.00 | 0.00 | 70 | 1018.4 |
| 20260506163244 | 47 | 78 | 5.2 | 6.1 | 0.00 | 0.00 | 0.00 | 69 | 1018.2 |
| 20260506162740 | 47 | 129 | 6.1 | 7.8 | 0.00 | 0.00 | 0.00 | 70 | 1018.0 |
| 20260506162238 | 46 | 121 | 3.5 | 6.1 | 0.00 | 0.00 | 0.00 | 71 | 1018.4 |
| 20260506161730 | 46 | 101 | 3.5 | 6.1 | 0.00 | 0.00 | 0.00 | 71 | 1018.1 |
| 20260506161227 | 47 | 162 | 6.1 | 8.7 | 0.00 | 0.00 | 0.00 | 70 | 1018.1 |
| 20260506160724 | 47 | 118 | 4.3 | 7.8 | 0.00 | 0.00 | 0.00 | 70 | 1018.0 |
| 20260506160221 | 46 | 115 | 1.7 | 2.6 | 0.00 | 0.00 | 0.00 | 71 | 1017.8 |
| 20260506155719 | 46 | 82 | 2.6 | 2.6 | 0.00 | 0.00 | 0.00 | 71 | 1017.9 |
| 20260506155216 | 46 | 85 | 7.0 | 8.7 | 0.00 | 0.00 | 0.00 | 71 | 1017.9 |
| 20260506153318 | 46 | 114 | 6.1 | 8.7 | 0.00 | 0.00 | 0.00 | 71 | 1017.7 |
| 20260506152815 | 45 | 89 | 6.1 | 8.7 | 0.00 | 0.00 | 0.00 | 72 | 1017.5 |
| 20260506152312 | 45 | 116 | 6.1 | 7.8 | 0.00 | 0.00 | 0.00 | 73 | 1017.6 |
| 20260506151810 | 45 | 146 | 6.1 | 7.8 | 0.00 | 0.00 | 0.00 | 73 | 1017.5 |
| 20260506151307 | 45 | 105 | 7.8 | 8.7 | 0.00 | 0.00 | 0.00 | 73 | 1017.6 |
| 20260506150804 | 46 | 103 | 3.5 | 7.8 | 0.00 | 0.00 | 0.00 | 72 | 1017.6 |
| 20260506150304 | 45 | 123 | 7.0 | 8.7 | 0.00 | 0.00 | 0.00 | 72 | 1017.5 |
| 20260506145758 | 45 | 72 | 0.0 | 1.7 | 0.00 | 0.00 | 0.00 | 73 | 1017.2 |
| 20260506145254 | 44 | 79 | 2.6 | 4.3 | 0.00 | 0.00 | 0.00 | 74 | 1017.0 |
| 20260506144752 | 44 | 113 | 3.5 | 4.3 | 0.00 | 0.00 | 0.00 | 74 | 1017.2 |
| 20260506144248 | 45 | 159 | 4.3 | 4.3 | 0.00 | 0.00 | 0.00 | 74 | 1016.8 |
| 20260506143746 | 44 | 88 | 2.6 | 4.3 | 0.00 | 0.00 | 0.00 | 74 | 1016.8 |
| 20260506143243 | 44 | 117 | 3.5 | 4.3 | 0.00 | 0.00 | 0.00 | 74 | 1016.7 |
| 20260506142742 | 44 | 52 | 7.8 | 18.2 | 0.00 | 0.00 | 0.00 | 74 | 1016.6 |
| 20260506142239 | 44 | 130 | 7.8 | 10.4 | 0.00 | 0.00 | 0.00 | 75 | 1016.6 |
| 20260506141738 | 44 | 131 | 5.2 | 8.7 | 0.00 | 0.00 | 0.00 | 76 | 1016.6 |
| 20260506141235 | 44 | 90 | 7.8 | 8.7 | 0.00 | 0.00 | 0.00 | 75 | 1016.7 |
| 20260506140732 | 44 | 144 | 6.1 | 7.8 | 0.00 | 0.00 | 0.00 | 76 | 1016.6 |
| 20260506140229 | 43 | 87 | 6.1 | 8.7 | 0.00 | 0.00 | 0.00 | 77 | 1016.7 |
| 20260506135726 | 43 | 159 | 9.6 | 14.8 | 0.00 | 0.00 | 0.00 | 77 | 1016.6 |